Overview Statistics Trail Chart Weather Telemetry Raw packets
 

This is the latest recevied weather packets stored in our database for station/object K5OLV. If no packets are shown the sender has not sent any weather packets the latest 10 day(s).

<< 81 82 83 84 85 86 87 >>
Time Temp. Humidity Pressure Rain* Wind** Luminosity Snow
1788024607 28.33° C 77% 1019.4 hPa 0 mm - 840 W/m² -
1788024301 27.78° C 76% 1019.7 hPa 0 mm - 826 W/m² -
1788023997 27.22° C 78% 1019.4 hPa 0 mm - 258 W/m² -
1788023691 28.33° C 77% 1019.6 hPa 0 mm - 848 W/m² -
1788023388 28.89° C 75% 1019.7 hPa 0 mm - 670 W/m² -
1788023087 28.33° C 76% 1019.8 hPa 0 mm - 252 W/m² -
1788022785 28.33° C 79% 1019.4 hPa 0 mm - 747 W/m² -
1788022484 28.89° C 76% 1019.8 hPa 0 mm - 308 W/m² -
1788022178 28.33° C 76% 1019.6 hPa 0 mm - 800 W/m² -
1788021878 28.33° C 77% 1019.6 hPa 0 mm - 614 W/m² -
1788021577 27.22° C 79% 1019.8 hPa 0 mm - 714 W/m² -
1788021275 27.22° C 78% 1019.3 hPa 0 mm - 707 W/m² -
1788020970 26.67° C 80% 1020 hPa 0 mm - 704 W/m² -
1788020666 27.22° C 79% 1019.9 hPa 0 mm - 754 W/m² -
1788020361 26.67° C 80% 1019.9 hPa 0 mm - 776 W/m² -
1788020058 26.67° C 81% 1020 hPa 0 mm - 822 W/m² -
1788019758 26.11° C 83% 1019.6 hPa 0 mm - 643 W/m² -
1788019457 25° C 84% 1019.7 hPa 0 mm - 817 W/m² -
1788019154 25° C 85% 1019.8 hPa 0 mm - 321 W/m² -
1788018849 25° C 83% 1020.1 hPa 0 mm - 274 W/m² -
1788018545 25° C 85% 1020 hPa 0 mm - 318 W/m² -
1788018243 25° C 86% 1020 hPa 0 mm - 350 W/m² -
1788017940 24.44° C 86% 1020.1 hPa 0 mm - 311 W/m² -
1788017642 25° C 86% 1020.2 hPa 0 mm - 215 W/m² -
1788017332 25° C 86% 1020.1 hPa 0 mm - 242 W/m² -

* Rain latest hour (hover to see other rain measurements)
** Current wind speed in m/s (hover to see current wind gust speed)